{"data":{"norad_id":54657,"intl_designator":"2022-166R","name":"ONEWEB-0591","alt_names":[],"object_type":"PAYLOAD","status":"ACTIVE","operator":null,"country":"UK","launch_date":"2022-12-08","launch_site_code":"AFETR","launch_vehicle":null,"mission":null,"orbit_class":"UNKNOWN","rcs_meters":null,"size_class":null,"mass_kg":null,"dimensions":null,"purposes":["comms"],"wikipedia_slug":null,"has_3d_model":false,"image_url":null,"decayed_at":null,"tle_current":{"epoch":"2026-05-25T05:19:51.852288Z","epoch_age_seconds":51853,"freshness":"FRESH","line1":"1 54657U 22166R   26145.22212792  .00000077  00000+0  15594-3 0  9999","line2":"2 54657  87.9251 248.5556 0002018 102.0816 258.0544 13.21824865168525","mean_motion":13.21824865,"eccentricity":0.0002018,"inclination_deg":87.9251,"raan_deg":248.5556,"arg_perigee_deg":102.0816,"mean_anomaly_deg":258.0544,"bstar":0.00015594,"rev_number":16852,"period_min":108.94030201195,"perigee_km":1176.232914119,"apogee_km":1179.2824732174,"semimajor_km":7555.8946936682,"source":"CELESTRAK","updated_at":"2026-05-25T13:38:22.631829Z"}}}